Regional Weather Roundup
Issued by NWS

Home | Current Version | Previous Version | Graphics & Text | Print | Product List | Glossary On
Versions: 1 2 3 4 5 6 7 8 9 10 11 12 13 14 15 16 17 18 19 20 21 22 23 24 25 26 27 28 29 30 31 32 33 34 35 36 37 38 39 40 41 42 43 44 45 46 47 48 49 50
000
ASUS43 KLMK 220002
RWRKY
KENTUCKY REGIONAL WEATHER ROUNDUP
NATIONAL WEATHER SERVICE LOUISVILLE KY
800 PM EDT SUN SEP 21 2014

NOTE "FAIR" INDICATES FEW OR NO CLOUDS BELOW 12,000 FEET
WITH NO SIGNIFICANT WEATHER AND/OR OBSTRUCTIONS TO VISIBILITY.

KYZ001>023-026-027-061>063-070>075-220100-
WESTERN AND SOUTH CENTRAL KENTUCKY

CITY           SKY/WX    TMP DP  RH WIND       PRES   REMARKS
PADUCAH        CLEAR     75  50  41 NW6       30.00R
HENDERSON      PTCLDY    72  46  40 NW6       30.00R
OWENSBORO      PTCLDY    73  50  44 NW10      29.99R
HOPKINSVILLE   CLEAR     72  49  43 NW8       29.99R
BOWLING GREEN  CLEAR     73  47  39 NW5       29.98R
GLASGOW        CLEAR     69  48  47 NW3       29.97R
$$

KYZ024-025-028>034-038-045-046-053-220100-
NORTH CENTRAL KENTUCKY

CITY           SKY/WX    TMP DP  RH WIND       PRES   REMARKS
LOUISVILLE/SDF PTCLDY    72  48  42 NW10G20   29.96R
LOUISVILLE/LOU PTCLDY    73  48  41 NW13      29.96R
FORT KNOX      CLEAR     64  53  65 W7        29.96R
$$

KYZ035>037-039>044-047>052-055>060-089>105-220100-
NORTHEAST KENTUCKY

CITY           SKY/WX    TMP DP  RH WIND       PRES   REMARKS
LEXINGTON      CLEAR     68  49  50 NW7       29.95R
COVINGTON      PTCLDY    66  47  50 NW18G24   29.96R
FRANKFORT      CLEAR     69  48  47 NW8       29.94R
$$

KYZ054-064>069-076>088-106>120-220100-
SOUTHEAST KENTUCKY

CITY           SKY/WX    TMP DP  RH WIND       PRES   REMARKS
JACKSON        CLEAR     69  48  47 NW12G20   29.93R
LONDON         CLEAR     72  52  49 NW8       29.95R
SOMERSET       CLEAR     70  46  43 NW7       29.96R
MIDDLESBORO    MOCLDY    72  65  79 CALM      29.93R
MONTICELLO     CLEAR     72  49  44 NW9       29.97R
$$




USA.gov is the U.S. government's official web portal to all federal, state and local government web resources and services.